QPF
0.00 0.00 0.00 0.00 0.00 0.00 0.00 0.01 0.03 0.05 0.02 0.01 0.03 0.09 0.15 0.10 0.09 0.10 0.13 0.09 0.06 0.06 0.07 0.06 0.05 0.04 0.05 0.05 0.04 0.03 0.03 0.02 0.02 0.02 0.03 0.03 0.02 0.02 0.02 0.01 0.01 0.01 0.01 0.01
0.00 0.00 0.00 0.00 0.00 0.00 0.00 0.02 0.04 0.02 0.01 0.01 0.03 0.05 0.07 0.06 0.05 0.06 0.11 0.11 0.07 0.08 0.09 0.06 0.04 0.02 0.02 0.02 0.03 0.03 0.01 0.01 0.01 0.02 0.02 0.02 0.01 0.01 0.01 0.01 0.01 0.01 0.00 0.00
0.00 0.00 0.00 0.00 0.00 0.00 0.01 0.02 0.02 0.00 0.00 0.01 0.03 0.09 0.08 0.06 0.04 0.04 0.04 0.05 0.07 0.09 0.08 0.03 0.03 0.04 0.03 0.02 0.02 0.01 0.01 0.01 0.01 0.01 0.01 0.02 0.01 0.01 0.01 0.02 0.01 0.00 0.00 0.00
0.00 0.00 0.00 0.00 0.01 0.00 0.01 0.01 0.00 0.00 0.02 0.05 0.03 0.17 0.14 0.07 0.05 0.04 0.03 0.03 0.04 0.05 0.03 0.01 0.01 0.01 0.01 0.01 0.01 0.01 0.01 0.01 0.01 0.01 0.02 0.02 0.02 0.02 0.01 0.01 0.01 0.01 0.00 0.00
0.00 0.00 0.00 0.00 0.00 0.00 0.00 0.00 0.00 0.01 0.02 0.05 0.05 0.06 0.08 0.05 0.05 0.04 0.03 0.02 0.01 0.02 0.01 0.01 0.01 0.01 0.01 0.00 0.00 0.01 0.01 0.01 0.02 0.02 0.02 0.02 0.01 0.01 0.01 0.01 0.02 0.02 0.01 0.00
0.00 0.00 0.00 0.00 0.00 0.00 0.00 0.00 0.03 0.06 0.10 0.10 0.04 0.03 0.06 0.05 0.03 0.03 0.02 0.01 0.00 0.00 0.00 0.00 0.00 0.00 0.01 0.00 0.00 0.00 0.02 0.03 0.02 0.01 0.01 0.01 0.01 0.01 0.01 0.01 0.02 0.01 0.01 0.00
0.01 0.00 0.00 0.00 0.00 0.00 0.00 0.01 0.11 0.19 0.21 0.12 0.03 0.01 0.02 0.02 0.00 0.00 0.00 0.00 0.00 0.00 0.00 0.00 0.00 0.00 0.00 0.00 0.00 0.00 0.02 0.03 0.01 0.01 0.02 0.01 0.01 0.01 0.01 0.01 0.01 0.00 0.00 0.00
0.01 0.02 0.02 0.01 0.00 0.00 0.00 0.01 0.05 0.07 0.09 0.06 0.01 0.01 0.00 0.00 0.00 0.00 0.00 0.00 0.00 0.00 0.00 0.00 0.00 0.00 0.00 0.00 0.00 0.00 0.01 0.01 0.01 0.01 0.01 0.00 0.00 0.00 0.00 0.00 0.00 0.00 0.00 0.00
0.01 0.02 0.01 0.00 0.00 0.00 0.00 0.00 0.00 0.00 0.01 0.03 0.02 0.00 0.00 0.00 0.00 0.00 0.00 0.00 0.00 0.00 0.00 0.00 0.00 0.00 0.00 0.00 0.00 0.00 0.00 0.00 0.00 0.00 0.00 0.00 0.00 0.00 0.00 0.00 0.00 0.00 0.00 0.00
0.00 0.00 0.00 0.00 0.00 0.00 0.00 0.00 0.00 0.00 0.00 0.02 0.03 0.02 0.01 0.00 0.00 0.00 0.00 0.00 0.00 0.00 0.00 0.00 0.00 0.00 0.00 0.00 0.00 0.00 0.00 0.00 0.00 0.00 0.00 0.00 0.00 0.00 0.00 0.00 0.00 0.00 0.00 0.00
0.00 0.00 0.00 0.00 0.00 0.00 0.00 0.00 0.00 0.00 0.00 0.01 0.05 0.04 0.01 0.00 0.00 0.00 0.00 0.00 0.00 0.00 0.00 0.00 0.00 0.00 0.00 0.00 0.00 0.00 0.00 0.00 0.00 0.00 0.00 0.00 0.00 0.00 0.00 0.00 0.00 0.00 0.00 0.01
0.00 0.00 0.00 0.01 0.01 0.00 0.00 0.00 0.00 0.00 0.00 0.00 0.01 0.01 0.00 0.00 0.00 0.00 0.00 0.00 0.00 0.00 0.00 0.00 0.00 0.00 0.00 0.00 0.00 0.00 0.00 0.00 0.00 0.00 0.00 0.00 0.00 0.00 0.00 0.00 0.00 0.00 0.00 0.01
0.00 0.00 0.00 0.05 0.09 0.05 0.01 0.00 0.00 0.00 0.00 0.00 0.00 0.01 0.01 0.00 0.00 0.00 0.00 0.00 0.00 0.00 0.00 0.00 0.00 0.00 0.00 0.00 0.00 0.00 0.00 0.00 0.00 0.00 0.00 0.00 0.00 0.00 0.00 0.00 0.00 0.00 0.01 0.01
0.00 0.00 0.00 0.04 0.09 0.07 0.02 0.00 0.00 0.00 0.00 0.00 0.01 0.01 0.01 0.00 0.00 0.00 0.00 0.00 0.00 0.00 0.00 0.00 0.00 0.00 0.00 0.00 0.00 0.00 0.00 0.00 0.00 0.00 0.00 0.00 0.00 0.00 0.00 0.00 0.00 0.00 0.00 0.01
0.00 0.00 0.00 0.00 0.01 0.01 0.01 0.00 0.00 0.00 0.00 0.00 0.01 0.01 0.00 0.00 0.00 0.00 0.00 0.00 0.00 0.00 0.00 0.00 0.00 0.00 0.00 0.00 0.00 0.00 0.00 0.00 0.00 0.00 0.00 0.00 0.00 0.00 0.00 0.00 0.00 0.00 0.00 0.00
0.01 0.00 0.00 0.00 0.00 0.00 0.00 0.00 0.00 0.00 0.00 0.00 0.00 0.00 0.00 0.00 0.00 0.00 0.00 0.00 0.00 0.00 0.00 0.00 0.00 0.00 0.00 0.00 0.00 0.00 0.00 0.00 0.00 0.00 0.00 0.00 0.00 0.00 0.00 0.00 0.00 0.00 0.00 0.01
0.03 0.02 0.01 0.00 0.00 0.00 0.00 0.00 0.00 0.00 0.00 0.00 0.00 0.00 0.00 0.00 0.00 0.00 0.00 0.00 0.00 0.00 0.00 0.00 0.00 0.00 0.00 0.00 0.00 0.00 0.00 0.00 0.00 0.00 0.00 0.00 0.00 0.00 0.00 0.00 0.00 0.00 0.01 0.01
0.01 0.02 0.01 0.00 0.00 0.00 0.00 0.00 0.00 0.00 0.00 0.00 0.00 0.00 0.00 0.00 0.00 0.00 0.00 0.00 0.00 0.00 0.00 0.00 0.00 0.00 0.00 0.00 0.00 0.00 0.00 0.00 0.00 0.00 0.00 0.00 0.00 0.00 0.00 0.00 0.00 0.01 0.01 0.01
0.00 0.00 0.00 0.00 0.00 0.01 0.01 0.01 0.01 0.00 0.00 0.00 0.00 0.00 0.00 0.00 0.00 0.00 0.00 0.00 0.00 0.00 0.00 0.00 0.00 0.00 0.00 0.00 0.00 0.00 0.00 0.00 0.00 0.00 0.00 0.00 0.00 0.00 0.00 0.00 0.00 0.01 0.01 0.01
0.01 0.01 0.00 0.00 0.01 0.01 0.01 0.02 0.02 0.01 0.01 0.00 0.00 0.00 0.00 0.00 0.00 0.00 0.00 0.00 0.00 0.00 0.00 0.00 0.00 0.00 0.00 0.00 0.00 0.00 0.00 0.00 0.00 0.00 0.00 0.00 0.00 0.00 0.00 0.00 0.00 0.01 0.01 0.01
0.04 0.01 0.00 0.01 0.02 0.02 0.03 0.03 0.03 0.04 0.06 0.03 0.01 0.00 0.00 0.01 0.01 0.01 0.00 0.00 0.00 0.00 0.00 0.00 0.00 0.00 0.00 0.00 0.00 0.00 0.00 0.00 0.00 0.00 0.00 0.00 0.00 0.00 0.00 0.00 0.00 0.01 0.01 0.01
0.05 0.04 0.02 0.03 0.07 0.07 0.07 0.07 0.11 0.13 0.08 0.04 0.01 0.01 0.01 0.01 0.00 0.00 0.00 0.00 0.00 0.00 0.00 0.00 0.00 0.00 0.00 0.00 0.00 0.00 0.00 0.00 0.00 0.00 0.00 0.00 0.00 0.00 0.00 0.00 0.00 0.01 0.01 0.01
0.02 0.02 0.01 0.03 0.10 0.12 0.12 0.14 0.14 0.12 0.08 0.04 0.03 0.02 0.01 0.00 0.00 0.00 0.00 0.00 0.00 0.00 0.00 0.00 0.00 0.00 0.00 0.00 0.00 0.00 0.00 0.00 0.00 0.00 0.00 0.00 0.00 0.00 0.00 0.00 0.00 0.01 0.01 0.02
0.02 0.01 0.01 0.02 0.07 0.10 0.09 0.09 0.07 0.05 0.03 0.02 0.01 0.00 0.00 0.00 0.00 0.00 0.00 0.00 0.00 0.00 0.00 0.00 0.00 0.00 0.00 0.00 0.00 0.00 0.00 0.00 0.00 0.00 0.00 0.00 0.00 0.00 0.00 0.00 0.00 0.00 0.01 0.01
0.01 0.01 0.01 0.04 0.07 0.07 0.06 0.04 0.02 0.01 0.00 0.00 0.00 0.00 0.00 0.00 0.00 0.00 0.00 0.00 0.00 0.00 0.00 0.00 0.00 0.00 0.00 0.00 0.00 0.00 0.00 0.00 0.00 0.00 0.00 0.00 0.00 0.00 0.00 0.00 0.00 0.00 0.00 0.00
0.00 0.00 0.01 0.04 0.05 0.03 0.03 0.01 0.01 0.00 0.00 0.00 0.00 0.00 0.00 0.00 0.00 0.00 0.00 0.00 0.00 0.00 0.00 0.00 0.00 0.00 0.00 0.00 0.00 0.00 0.00 0.00 0.01 0.01 0.01 0.00 0.00 0.00 0.00 0.00 0.00 0.00 0.00 0.00
MSLP
1007.69 1008.05 1008.30 1008.51 1008.72 1008.99 1009.39 1009.94 1010.60 1011.32 1012.02 1012.59 1012.97 1013.08 1012.93 1012.54 1011.99 1011.38 1010.82 1010.39 1010.16 1010.14 1010.33 1010.66 1011.06 1011.47 1011.84 1012.14 1012.38 1012.57 1012.75 1012.96 1013.22 1013.52 1013.85 1014.18 1014.47 1014.69 1014.82 1014.88 1014.89 1014.90 1014.94 1015.04
1007.97 1008.26 1008.47 1008.64 1008.84 1009.16 1009.62 1010.24 1010.98 1011.76 1012.48 1013.05 1013.38 1013.43 1013.20 1012.74 1012.16 1011.56 1011.04 1010.69 1010.54 1010.60 1010.83 1011.17 1011.53 1011.87 1012.14 1012.33 1012.47 1012.59 1012.75 1012.96 1013.25 1013.61 1013.99 1014.36 1014.67 1014.88 1014.98 1014.99 1014.95 1014.90 1014.90 1014.98
1008.12 1008.36 1008.53 1008.69 1008.91 1009.27 1009.80 1010.50 1011.30 1012.11 1012.83 1013.36 1013.62 1013.58 1013.28 1012.76 1012.15 1011.56 1011.10 1010.82 1010.76 1010.90 1011.18 1011.53 1011.87 1012.15 1012.34 1012.45 1012.51 1012.58 1012.71 1012.94 1013.27 1013.67 1014.10 1014.50 1014.83 1015.04 1015.12 1015.10 1015.02 1014.94 1014.91 1014.97
1008.11 1008.30 1008.45 1008.62 1008.89 1009.32 1009.93 1010.70 1011.55 1012.38 1013.08 1013.55 1013.72 1013.59 1013.19 1012.60 1011.96 1011.37 1010.94 1010.73 1010.74 1010.95 1011.28 1011.66 1012.00 1012.24 1012.39 1012.45 1012.47 1012.52 1012.65 1012.89 1013.25 1013.69 1014.17 1014.60 1014.95 1015.17 1015.24 1015.21 1015.10 1015.00 1014.95 1014.99
1007.94 1008.10 1008.24 1008.44 1008.78 1009.30 1010.00 1010.85 1011.75 1012.59 1013.25 1013.65 1013.72 1013.47 1012.96 1012.29 1011.59 1010.98 1010.56 1010.39 1010.46 1010.72 1011.10 1011.51 1011.87 1012.12 1012.27 1012.32 1012.35 1012.40 1012.55 1012.82 1013.22 1013.69 1014.20 1014.66 1015.03 1015.25 1015.33 1015.30 1015.19 1015.08 1015.02 1015.04
1007.68 1007.80 1007.95 1008.20 1008.61 1009.22 1010.01 1010.93 1011.87 1012.71 1013.33 1013.65 1013.61 1013.25 1012.63 1011.86 1011.08 1010.43 1010.00 1009.83 1009.92 1010.22 1010.65 1011.10 1011.49 1011.79 1011.97 1012.07 1012.14 1012.24 1012.43 1012.74 1013.17 1013.67 1014.19 1014.67 1015.05 1015.29 1015.38 1015.35 1015.26 1015.15 1015.08 1015.09
1007.43 1007.51 1007.66 1007.94 1008.42 1009.10 1009.96 1010.93 1011.89 1012.71 1013.29 1013.53 1013.40 1012.93 1012.20 1011.34 1010.49 1009.78 1009.31 1009.12 1009.21 1009.53 1009.98 1010.48 1010.93 1011.30 1011.55 1011.73 1011.88 1012.05 1012.30 1012.66 1013.11 1013.63 1014.16 1014.64 1015.02 1015.26 1015.36 1015.35 1015.27 1015.16 1015.09 1015.08
1007.29 1007.33 1007.46 1007.76 1008.26 1008.97 1009.85 1010.83 1011.78 1012.57 1013.09 1013.26 1013.06 1012.51 1011.70 1010.77 1009.86 1009.09 1008.58 1008.36 1008.43 1008.75 1009.22 1009.76 1010.28 1010.72 1011.08 1011.36 1011.61 1011.87 1012.18 1012.58 1013.06 1013.58 1014.10 1014.56 1014.93 1015.16 1015.27 1015.27 1015.20 1015.11 1015.03 1015.01
1007.34 1007.34 1007.44 1007.70 1008.18 1008.86 1009.71 1010.63 1011.53 1012.26 1012.72 1012.83 1012.58 1011.98 1011.15 1010.18 1009.24 1008.45 1007.91 1007.66 1007.71 1008.01 1008.49 1009.06 1009.64 1010.16 1010.62 1011.01 1011.37 1011.72 1012.10 1012.54 1013.02 1013.52 1014.01 1014.44 1014.77 1014.99 1015.09 1015.09 1015.03 1014.96 1014.89 1014.86
1007.61 1007.56 1007.61 1007.80 1008.19 1008.78 1009.52 1010.34 1011.13 1011.77 1012.15 1012.22 1011.94 1011.36 1010.54 1009.60 1008.69 1007.91 1007.37 1007.11 1007.14 1007.43 1007.90 1008.49 1009.11 1009.71 1010.26 1010.75 1011.19 1011.63 1012.06 1012.52 1012.99 1013.46 1013.90 1014.27 1014.56 1014.74 1014.82 1014.83 1014.78 1014.72 1014.66 1014.63
1008.06 1007.97 1007.94 1008.04 1008.30 1008.73 1009.30 1009.95 1010.59 1011.10 1011.40 1011.43 1011.17 1010.63 1009.89 1009.04 1008.21 1007.50 1007.00 1006.76 1006.79 1007.06 1007.53 1008.12 1008.76 1009.41 1010.02 1010.58 1011.10 1011.59 1012.06 1012.52 1012.96 1013.38 1013.75 1014.06 1014.29 1014.43 1014.49 1014.49 1014.45 1014.41 1014.37 1014.35
1008.59 1008.47 1008.38 1008.36 1008.46 1008.70 1009.06 1009.50 1009.94 1010.31 1010.52 1010.52 1010.28 1009.83 1009.20 1008.49 1007.80 1007.20 1006.79 1006.59 1006.64 1006.91 1007.36 1007.94 1008.59 1009.25 1009.90 1010.51 1011.08 1011.60 1012.08 1012.52 1012.92 1013.28 1013.58 1013.81 1013.98 1014.07 1014.11 1014.10 1014.08 1014.06 1014.05 1014.05
1009.08 1008.96 1008.81 1008.68 1008.62 1008.66 1008.80 1009.01 1009.25 1009.45 1009.56 1009.52 1009.33 1008.97 1008.49 1007.95 1007.42 1006.98 1006.67 1006.56 1006.64 1006.91 1007.35 1007.91 1008.54 1009.21 1009.86 1010.49 1011.07 1011.60 1012.07 1012.49 1012.85 1013.14 1013.37 1013.54 1013.64 1013.69 1013.71 1013.71 1013.70 1013.70 1013.72 1013.76
1009.43 1009.33 1009.15 1008.94 1008.76 1008.62 1008.55 1008.54 1008.58 1008.62 1008.61 1008.54 1008.37 1008.11 1007.77 1007.40 1007.05 1006.76 1006.59 1006.56 1006.69 1006.98 1007.40 1007.94 1008.55 1009.19 1009.83 1010.45 1011.03 1011.55 1012.01 1012.40 1012.72 1012.96 1013.13 1013.24 1013.30 1013.32 1013.33 1013.33 1013.33 1013.36 1013.41 1013.47
1009.56 1009.51 1009.34 1009.10 1008.83 1008.57 1008.33 1008.15 1008.00 1007.88 1007.77 1007.64 1007.48 1007.28 1007.06 1006.84 1006.64 1006.50 1006.45 1006.51 1006.70 1007.00 1007.42 1007.93 1008.50 1009.11 1009.73 1010.34 1010.91 1011.42 1011.87 1012.24 1012.52 1012.73 1012.87 1012.95 1012.98 1012.98 1012.98 1012.98 1013.00 1013.05 1013.11 1013.19
1009.46 1009.48 1009.37 1009.15 1008.86 1008.53 1008.19 1007.87 1007.58 1007.32 1007.10 1006.90 1006.71 1006.55 1006.40 1006.28 1006.20 1006.17 1006.22 1006.35 1006.58 1006.90 1007.30 1007.79 1008.33 1008.91 1009.51 1010.10 1010.66 1011.17 1011.61 1011.98 1012.26 1012.47 1012.59 1012.66 1012.69 1012.69 1012.68 1012.68 1012.71 1012.76 1012.82 1012.90
1009.17 1009.28 1009.26 1009.11 1008.86 1008.53 1008.15 1007.75 1007.36 1006.99 1006.66 1006.38 1006.14 1005.95 1005.82 1005.74 1005.72 1005.76 1005.87 1006.05 1006.30 1006.63 1007.02 1007.48 1008.00 1008.55 1009.13 1009.71 1010.27 1010.79 1011.24 1011.63 1011.94 1012.16 1012.31 1012.39 1012.43 1012.44 1012.43 1012.44 1012.45 1012.48 1012.53 1012.59
1008.76 1008.96 1009.05 1009.00 1008.84 1008.58 1008.22 1007.81 1007.36 1006.91 1006.48 1006.10 1005.78 1005.53 1005.35 1005.26 1005.24 1005.30 1005.43 1005.62 1005.88 1006.20 1006.58 1007.02 1007.51 1008.04 1008.61 1009.18 1009.75 1010.29 1010.78 1011.20 1011.55 1011.82 1012.01 1012.13 1012.20 1012.22 1012.22 1012.22 1012.21 1012.21 1012.22 1012.22
1008.32 1008.60 1008.80 1008.88 1008.85 1008.68 1008.39 1008.01 1007.54 1007.04 1006.53 1006.06 1005.64 1005.29 1005.04 1004.89 1004.83 1004.85 1004.96 1005.14 1005.38 1005.69 1006.04 1006.46 1006.92 1007.43 1007.98 1008.56 1009.14 1009.71 1010.24 1010.71 1011.12 1011.45 1011.69 1011.86 1011.96 1012.01 1012.02 1011.99 1011.96 1011.91 1011.86 1011.81
1007.90 1008.25 1008.55 1008.76 1008.85 1008.81 1008.62 1008.29 1007.84 1007.32 1006.76 1006.20 1005.68 1005.24 1004.89 1004.65 1004.52 1004.50 1004.56 1004.70 1004.91 1005.18 1005.50 1005.88 1006.32 1006.80 1007.33 1007.90 1008.49 1009.08 1009.65 1010.17 1010.64 1011.03 1011.33 1011.55 1011.69 1011.76 1011.76 1011.73 1011.65 1011.56 1011.45 1011.33
1007.54 1007.93 1008.31 1008.63 1008.85 1008.92 1008.83 1008.58 1008.18 1007.66 1007.07 1006.45 1005.86 1005.33 1004.90 1004.58 1004.38 1004.29 1004.30 1004.39 1004.56 1004.79 1005.07 1005.41 1005.80 1006.24 1006.74 1007.28 1007.86 1008.45 1009.04 1009.60 1010.11 1010.55 1010.90 1011.17 1011.34 1011.42 1011.42 1011.37 1011.26 1011.12 1010.96 1010.79
1007.23 1007.64 1008.07 1008.47 1008.78 1008.96 1008.97 1008.80 1008.45 1007.97 1007.38 1006.75 1006.12 1005.54 1005.06 1004.68 1004.43 1004.29 1004.26 1004.31 1004.43 1004.61 1004.84 1005.11 1005.45 1005.83 1006.27 1006.76 1007.30 1007.87 1008.45 1009.02 1009.54 1010.01 1010.39 1010.68 1010.86 1010.95 1010.95 1010.87 1010.74 1010.57 1010.38 1010.18
1006.96 1007.36 1007.82 1008.26 1008.64 1008.89 1008.98 1008.89 1008.61 1008.18 1007.64 1007.03 1006.41 1005.84 1005.35 1004.96 1004.69 1004.53 1004.47 1004.49 1004.57 1004.70 1004.87 1005.08 1005.33 1005.64 1005.99 1006.41 1006.88 1007.39 1007.92 1008.45 1008.96 1009.41 1009.79 1010.07 1010.26 1010.34 1010.32 1010.23 1010.08 1009.89 1009.69 1009.50
1006.70 1007.09 1007.54 1007.99 1008.40 1008.70 1008.85 1008.83 1008.63 1008.27 1007.80 1007.27 1006.72 1006.20 1005.75 1005.41 1005.16 1005.02 1004.96 1004.97 1005.02 1005.10 1005.21 1005.34 1005.50 1005.70 1005.95 1006.25 1006.62 1007.03 1007.48 1007.94 1008.39 1008.79 1009.12 1009.38 1009.53 1009.58 1009.55 1009.44 1009.28 1009.10 1008.91 1008.74
1006.46 1006.82 1007.24 1007.69 1008.10 1008.42 1008.61 1008.64 1008.52 1008.26 1007.89 1007.46 1007.02 1006.61 1006.26 1006.00 1005.82 1005.73 1005.70 1005.72 1005.75 1005.79 1005.84 1005.88 1005.94 1006.02 1006.14 1006.32 1006.55 1006.84 1007.17 1007.52 1007.87 1008.18 1008.44 1008.62 1008.72 1008.73 1008.67 1008.54 1008.38 1008.20 1008.05 1007.93
1006.25 1006.58 1006.97 1007.39 1007.78 1008.10 1008.32 1008.40 1008.35 1008.19 1007.94 1007.65 1007.35 1007.07 1006.86 1006.71 1006.64 1006.62 1006.64 1006.67 1006.70 1006.71 1006.70 1006.66 1006.61 1006.58 1006.57 1006.60 1006.69 1006.83 1007.02 1007.23 1007.45 1007.64 1007.80 1007.88 1007.90 1007.85 1007.73 1007.58 1007.41 1007.25 1007.13 1007.07
Thickness
5816 5802 5792 5802 5811 5807 5801 5782 5770 5773 5790 5783 5768 5750 5747 5751 5754 5759 5760 5760 5760 5761 5764 5766 5766 5764 5760 5757 5755 5751 5747 5744 5742 5739 5735 5732 5730 5729 5728 5725 5721 5717 5714 5711
5804 5796 5810 5820 5819 5811 5799 5784 5777 5779 5790 5784 5767 5753 5754 5757 5755 5757 5756 5755 5757 5758 5758 5759 5761 5760 5757 5753 5750 5746 5744 5742 5740 5736 5733 5730 5728 5726 5725 5722 5718 5715 5711 5707
5804 5813 5826 5819 5809 5800 5791 5785 5783 5780 5787 5783 5765 5747 5745 5755 5759 5759 5758 5758 5758 5756 5754 5755 5757 5757 5755 5751 5748 5747 5743 5740 5737 5734 5732 5728 5724 5721 5719 5716 5714 5712 5708 5705
5813 5824 5819 5810 5803 5801 5786 5799 5794 5786 5770 5754 5755 5728 5737 5747 5751 5754 5757 5761 5761 5761 5759 5758 5757 5756 5755 5752 5750 5748 5743 5739 5735 5732 5727 5722 5718 5714 5714 5713 5711 5709 5706 5703
5808 5817 5812 5804 5806 5807 5800 5806 5791 5779 5762 5750 5754 5741 5736 5747 5744 5753 5761 5765 5766 5766 5764 5761 5760 5758 5757 5755 5752 5748 5743 5737 5733 5729 5725 5720 5716 5713 5712 5709 5707 5704 5703 5701
5814 5825 5822 5817 5820 5817 5812 5798 5779 5755 5739 5721 5746 5746 5736 5751 5754 5760 5766 5769 5770 5770 5769 5766 5764 5761 5758 5757 5754 5749 5741 5735 5731 5726 5723 5718 5713 5709 5706 5703 5701 5700 5699 5699
5790 5802 5813 5819 5806 5809 5803 5778 5740 5712 5704 5721 5761 5758 5754 5772 5777 5775 5774 5774 5775 5774 5771 5767 5763 5760 5758 5755 5752 5747 5740 5732 5729 5725 5721 5716 5712 5707 5704 5701 5699 5697 5695 5694
5780 5769 5788 5806 5805 5797 5797 5786 5753 5735 5734 5745 5763 5756 5771 5790 5792 5790 5786 5783 5779 5775 5773 5769 5766 5762 5759 5755 5751 5746 5738 5731 5728 5724 5719 5715 5710 5706 5704 5701 5697 5694 5692 5690
5781 5773 5801 5811 5819 5811 5794 5791 5799 5779 5767 5742 5750 5770 5776 5791 5788 5787 5785 5782 5779 5777 5775 5772 5768 5764 5760 5755 5750 5744 5737 5730 5726 5722 5717 5712 5708 5704 5701 5697 5694 5692 5690 5687
5807 5789 5806 5817 5819 5817 5809 5803 5793 5776 5756 5743 5744 5749 5755 5771 5777 5783 5783 5781 5781 5780 5778 5774 5770 5766 5761 5755 5749 5743 5736 5729 5724 5720 5715 5714 5708 5704 5700 5696 5692 5688 5685 5681
5815 5790 5795 5803 5794 5791 5797 5795 5790 5784 5777 5750 5723 5735 5780 5781 5785 5785 5785 5786 5784 5782 5779 5776 5771 5766 5759 5753 5746 5739 5733 5727 5722 5718 5714 5710 5706 5702 5699 5695 5691 5687 5683 5679
5811 5796 5781 5783 5787 5795 5800 5797 5791 5768 5763 5769 5756 5755 5797 5797 5799 5795 5791 5791 5789 5786 5783 5777 5771 5763 5756 5749 5744 5738 5733 5727 5723 5719 5714 5709 5704 5700 5696 5692 5689 5685 5681 5676
5805 5785 5763 5758 5751 5761 5768 5787 5795 5792 5779 5769 5755 5756 5791 5798 5799 5798 5795 5792 5790 5786 5782 5776 5768 5760 5753 5747 5742 5738 5733 5728 5724 5720 5714 5708 5703 5699 5694 5690 5686 5682 5677 5673
5804 5782 5766 5746 5741 5747 5754 5774 5789 5788 5771 5765 5761 5762 5779 5788 5790 5793 5794 5792 5789 5784 5778 5772 5763 5757 5751 5746 5740 5735 5731 5728 5723 5718 5712 5706 5701 5697 5692 5688 5684 5679 5675 5670
5790 5775 5777 5779 5781 5776 5774 5781 5789 5787 5783 5771 5771 5772 5781 5789 5792 5793 5793 5791 5785 5779 5774 5768 5760 5754 5749 5743 5738 5733 5729 5725 5720 5714 5708 5704 5700 5696 5691 5686 5681 5676 5672 5667
5771 5764 5769 5771 5784 5785 5782 5790 5794 5792 5791 5787 5784 5782 5797 5799 5797 5792 5790 5786 5779 5774 5770 5766 5760 5753 5747 5741 5736 5732 5727 5722 5717 5710 5705 5702 5697 5692 5687 5683 5678 5673 5668 5663
5758 5757 5752 5754 5775 5775 5766 5785 5790 5791 5795 5791 5780 5785 5795 5791 5788 5786 5785 5782 5777 5773 5770 5765 5759 5753 5746 5741 5736 5730 5725 5720 5714 5708 5703 5699 5694 5689 5684 5680 5675 5669 5664 5658
5765 5759 5756 5755 5758 5740 5775 5804 5802 5795 5796 5800 5796 5795 5795 5792 5791 5791 5788 5781 5776 5774 5770 5766 5760 5754 5748 5743 5736 5729 5724 5718 5711 5706 5701 5697 5691 5686 5681 5675 5670 5664 5659 5653
5775 5761 5753 5751 5747 5757 5779 5788 5784 5775 5779 5796 5795 5794 5793 5794 5789 5785 5788 5784 5778 5775 5771 5766 5762 5756 5750 5742 5735 5727 5721 5715 5709 5704 5699 5695 5689 5683 5676 5670 5665 5660 5654 5648
5768 5765 5754 5750 5740 5738 5759 5776 5785 5773 5755 5781 5786 5785 5787 5783 5764 5767 5782 5782 5778 5775 5771 5765 5761 5755 5746 5740 5734 5724 5716 5711 5706 5702 5697 5692 5686 5678 5672 5666 5661 5655 5649 5643
5734 5740 5745 5746 5741 5749 5761 5773 5769 5737 5733 5760 5773 5775 5777 5773 5771 5774 5779 5778 5776 5771 5767 5762 5756 5749 5743 5737 5729 5719 5713 5708 5704 5700 5694 5688 5681 5674 5668 5663 5657 5651 5645 5639
5734 5733 5737 5738 5726 5724 5746 5751 5737 5729 5745 5753 5763 5769 5771 5772 5775 5776 5774 5771 5769 5764 5761 5756 5749 5743 5738 5732 5723 5714 5708 5705 5701 5694 5688 5682 5676 5669 5665 5658 5652 5646 5640 5634
5748 5751 5752 5743 5729 5731 5734 5728 5732 5738 5741 5749 5756 5761 5764 5764 5765 5765 5763 5760 5758 5756 5753 5749 5742 5735 5730 5725 5717 5708 5703 5699 5693 5686 5680 5674 5669 5663 5657 5650 5645 5641 5636 5630
5754 5758 5752 5735 5725 5723 5727 5731 5734 5740 5743 5748 5752 5755 5756 5754 5754 5752 5750 5748 5746 5744 5742 5739 5733 5725 5719 5715 5709 5703 5698 5692 5684 5677 5672 5667 5662 5657 5653 5647 5642 5637 5633 5627
5748 5751 5742 5726 5722 5720 5719 5727 5732 5736 5738 5739 5741 5742 5741 5740 5738 5738 5735 5734 5734 5731 5730 5727 5722 5716 5711 5707 5701 5696 5690 5683 5675 5670 5665 5661 5657 5653 5649 5645 5641 5636 5632 5625
5747 5742 5734 5721 5724 5720 5713 5724 5729 5727 5725 5725 5724 5724 5725 5724 5722 5722 5720 5719 5718 5717 5715 5712 5709 5704 5701 5696 5691 5686 5681 5674 5666 5660 5656 5654 5651 5648 5645 5642 5638 5635 5629 5624